Weather History for Coffeyville, KS

Change the Weather History Date:

Sunday, September 9, 2012

  Actual Average Record
Temperature  
Mean Temperature 68 °F -  
Max Temperature 84 °F 84 °F 97 °F (2013)
Min Temperature 54 °F 59 °F 50 °F (2004)
Cooling Degree Days 3    
Growing Degree Days 18 (Base 50)    
Moisture  
Dew Point 51 °F    
Average Humidity 61    
Maximum Humidity 93    
Minimum Humidity 25    
Precipitation  
Precipitation 0.00 in - - ()
Sea Level Pressure  
Sea Level Pressure 30.10 in    
Wind  
Wind Speed 4 mph (NE)    
Max Wind Speed 13 mph    
Max Gust Speed -    
Visibility 10 miles    
Events      
Averages and records for this station are not official NWS values.
T = Trace of Precipitation, MM = Missing Value Source: NWS Daily Summary

Daily Weather History Graph

Daily Weather History Graph

Search for Another Location

Airport:

Trip Planner

Search our weather history database for the weather conditions in past years. The results will help you decide how hot, cold, wet, or windy it might be!

Date:

Astronomy

Sep. 09, 2012 Rise Set
Actual Time 6:59 AM CDT 7:38 PM CDT
Civil Twilight 6:33 AM CDT 8:04 PM CDT
Nautical Twilight 6:02 AM CDT 8:35 PM CDT
Astronomical Twilight 5:30 AM CDT 9:06 PM CDT
Moon 12:36 AM CDT (9/9) 3:18 PM CDT (9/9)
Length of Visible Light 13h 30m
Length of Day
12h 38m
Last Quarter, 39% of the Moon is Illuminated
Sep 9
Last Quarter
Sep 15
New
Sep 22
First Quarter
Sep 29
Full
Oct 8
Last Quarter

Hourly Weather History & Observations

Time (CDT) Temp. Dew Point Humidity Pressure Visibility Wind Dir Wind Speed Gust Speed Precip Events Conditions
12:52 AM 60.1 °F 54.0 °F 80% 30.06 in 10.0 mi Calm Calm - N/A   Clear
1:52 AM 57.0 °F 54.0 °F 89% 30.05 in 10.0 mi South 3.5 mph - N/A   Clear
2:52 AM 57.0 °F 52.0 °F 83% 30.05 in 10.0 mi SSW 3.5 mph - N/A   Clear
3:52 AM 55.9 °F 52.0 °F 87% 30.05 in 10.0 mi Calm Calm - N/A   Clear
4:52 AM 54.0 °F 52.0 °F 93% 30.06 in 10.0 mi South 3.5 mph - N/A   Clear
5:52 AM 55.0 °F 52.0 °F 89% 30.07 in 10.0 mi Calm Calm - N/A   Clear
6:52 AM 54.0 °F 52.0 °F 93% 30.10 in 10.0 mi Calm Calm - N/A   Clear
7:52 AM 57.0 °F 53.1 °F 87% 30.12 in 10.0 mi Calm Calm - N/A   Clear
8:06 AM 59.0 °F 53.6 °F 82% 30.13 in 10.0 mi Calm Calm - N/A   Partly Cloudy
9:52 AM 69.1 °F 52.0 °F 54% 30.14 in 10.0 mi NE 10.4 mph - N/A   Clear
10:52 AM 73.0 °F 50.0 °F 44% 30.15 in 10.0 mi ENE 10.4 mph - N/A   Clear
11:52 AM 77.0 °F 48.9 °F 37% 30.15 in 10.0 mi North 8.1 mph - N/A   Clear
12:52 PM 79.0 °F 48.9 °F 35% 30.14 in 10.0 mi NNE 9.2 mph - N/A   Clear
1:52 PM 81.0 °F 48.9 °F 33% 30.13 in 10.0 mi NNE 11.5 mph - N/A   Clear
2:52 PM 82.0 °F 46.9 °F 29% 30.10 in 10.0 mi North 11.5 mph - N/A   Clear
3:52 PM 82.9 °F 44.1 °F 25% 30.09 in 10.0 mi North 9.2 mph - N/A   Clear
4:52 PM 82.0 °F 46.0 °F 28% 30.09 in 10.0 mi NE 12.7 mph - N/A   Clear
5:52 PM 81.0 °F 48.0 °F 31% 30.09 in 10.0 mi NE 9.2 mph - N/A   Clear
6:52 PM 78.1 °F 48.9 °F 36% 30.09 in 10.0 mi NE 6.9 mph - N/A   Clear
7:52 PM 71.1 °F 53.1 °F 53% 30.10 in 10.0 mi ENE 4.6 mph - N/A   Clear
8:52 PM 68.0 °F 54.0 °F 61% 30.11 in 10.0 mi NE 4.6 mph - N/A   Clear
9:52 PM 64.0 °F 54.0 °F 70% 30.12 in 10.0 mi ENE 3.5 mph - N/A   Clear
10:52 PM 63.0 °F 54.0 °F 72% 30.13 in 10.0 mi ENE 3.5 mph - N/A   Clear
11:52 PM 60.1 °F 54.0 °F 80% 30.13 in 10.0 mi NE 3.5 mph - N/A   Clear